Regional Weather Roundup
Issued by NWS

Home | Current Version | Previous Version | Text Only | Print | Product List | Glossary Off
Versions: 1 2 3 4 5 6 7 8 9 10 11 12 13 14 15 16 17 18 19 20 21 22 23 24 25 26 27 28 29 30 31 32 33 34 35 36 37 38 39 40 41 42 43 44 45 46 47 48 49 50

737
ASUS45 KCYS 290010
RWRWY

WYOMING REGIONAL WEATHER ROUNDUP
NATIONAL WEATHER SERVICE CHEYENNE WY
600 PM MDT WED SEP 28 2016

NOTE:  "FAIR" INDICATES FEW OR NO CLOUDS BELOW 12,000 FEET
WITH NO SIGNIFICANT WEATHER AND/OR OBSTRUCTIONS TO VISIBILITY.

WYZ001-290100-
YELLOWSTONE NATIONAL PARK

CITY           SKY/WX    TMP DP  RH WIND       PRES   REMARKS
LK YELLOWSTONE   N/A     66  29  24 CALM      30.38S
6HR MIN TEMP:  60; 6HR MAX TEMP:  69;

W YELLOWSTONE  NOT AVBL

$$
WYZ002>013-054>058-071-098>099-290100-
NORTHERN WYOMING

CITY           SKY/WX    TMP DP  RH WIND       PRES   REMARKS
JACKSON        NOT AVBL
CODY           FAIR      75  36  23 SE17      30.22S
GREYBULL       FAIR      79  46  31 SE7       30.16F
6HR MIN TEMP:  67; 6HR MAX TEMP:  80;

WORLAND        FAIR      79  38  22 E13       30.18S
6HR MIN TEMP:  67; 6HR MAX TEMP:  82;

SHERIDAN       FAIR      76  38  25 SE14G24   30.20S
6HR MIN TEMP:  70; 6HR MAX TEMP:  81;

BUFFALO        NOT AVBL
GILLETTE       FAIR      74  41  30 SE10      30.26S
6HR MIN TEMP:  74; 6HR MAX TEMP:  78;

HULETT         FAIR      73  43  33 E13G18    30.30S
NEWCASTLE      FAIR      77  37  24 S10       30.28S

$$
WYZ014>020-022>026-101>103-290100-
CENTRAL WYOMING

CITY           SKY/WX    TMP DP  RH WIND       PRES   REMARKS
BIG PINEY      FAIR      72  27  18 SW8       30.33S
6HR MIN TEMP:  63; 6HR MAX TEMP:  74;

PINEDALE       FAIR      70  25  18 SE9       30.35S
DUBOIS         FAIR      63  34  34 SE13      30.36S
LANDER         FAIR      74  39  28 E6        30.24F
6HR MIN TEMP:  68; 6HR MAX TEMP:  77;

RIVERTON       FAIR      75  37  25 E5        30.26F
6HR MIN TEMP:  65; 6HR MAX TEMP:  76;

CASPER         FAIR      74  34  23 E15       30.29S
6HR MIN TEMP:  71; 6HR MAX TEMP:  77;

DOUGLAS        FAIR      75  33  21 SE13      30.30R
6HR MIN TEMP:  73; 6HR MAX TEMP:  79;


$$
WYZ021-027>030-104>119-290100-
SOUTHERN WYOMING

CITY           SKY/WX    TMP DP  RH WIND       PRES   REMARKS
EVANSTON       FAIR      72  34  24 E10       30.29F
6HR MIN TEMP:  67; 6HR MAX TEMP:  75;

FORT BRIDGER   FAIR      74  31  20 E9        30.33F
ROCK SPRINGS   FAIR      72  30  21 E7        30.30F
6HR MIN TEMP:  65; 6HR MAX TEMP:  75;

DIXON          FAIR      77  31  19 W5        30.32S
RAWLINS        FAIR      74  32  21 NE15      30.33R
6HR MIN TEMP:  66; 6HR MAX TEMP:  79;

SARATOGA       FAIR      73  30  20 N12       30.33F
LARAMIE        FAIR      67  30  25 SE15G26   30.38R
6HR MIN TEMP:  67; 6HR MAX TEMP:  74;

CHEYENNE       FAIR      72  34  24 SE10      30.35S
6HR MIN TEMP:  72; 6HR MAX TEMP:  76;

TORRINGTON     FAIR      76  38  25 SE9       30.26S
6HR MIN TEMP:  76; 6HR MAX TEMP:  82;

PINE BLUFFS    FAIR      73  34  23 E8        30.33R

$$




USA.gov is the U.S. government's official web portal to all federal, state and local government web resources and services.